NKS890 KFLL-KATL

Flight info

Callsign NKS890
Flight time N/A
Altitude 36000
Route FRSBE2 STYMY Q77 MJAMS/N0449F350 Q77 SHRKS/N0452F360 LAIRI LARZZ JJEDI4
Aircraft A321/M-SDE3FGHIRWY/LB1

Departure

Time 2026-05-03 23:07
Airport Fort Lauderdale Hollywood International Airport (KFLL)

Arrival

Time N/A
Airport Hartsfield Jackson Atlanta International Airport (KATL)
Time Latitude Longitude Altitude Speed Heading
2026-05-03 22:31 26.07398 -80.14696 17 ft 0 kts 191°
2026-05-03 22:43 26.07406 -80.14695 17 ft 3 kts 193°
2026-05-03 22:43 26.07426 -80.14689 17 ft 3 kts 199°
2026-05-03 22:43 26.07445 -80.14681 18 ft 3 kts 207°
2026-05-03 22:43 26.07462 -80.14669 16 ft 3 kts 218°
2026-05-03 22:44 26.07477 -80.14654 20 ft 3 kts 233°
2026-05-03 22:44 26.07486 -80.14635 17 ft 3 kts 257°
2026-05-03 22:44 26.07488 -80.14623 16 ft 0 kts 270°
2026-05-03 22:46 26.07488 -80.14629 16 ft 3 kts 270°
2026-05-03 22:46 26.07488 -80.14684 16 ft 11 kts 270°
2026-05-03 22:46 26.07488 -80.14799 16 ft 19 kts 269°
2026-05-03 22:47 26.07488 -80.14959 16 ft 21 kts 270°
2026-05-03 22:47 26.07489 -80.15110 16 ft 12 kts 270°
2026-05-03 22:47 26.07489 -80.15203 16 ft 10 kts 270°
2026-05-03 22:47 26.07489 -80.15211 16 ft 1 kts 270°
2026-05-03 22:48 26.07490 -80.15238 16 ft 7 kts 270°
2026-05-03 22:48 26.07458 -80.15293 16 ft 10 kts 199°
2026-05-03 22:48 26.07389 -80.15300 16 ft 11 kts 181°
2026-05-03 22:48 26.07302 -80.15300 16 ft 14 kts 180°
2026-05-03 22:49 26.07166 -80.15301 16 ft 25 kts 180°
2026-05-03 22:49 26.06979 -80.15302 16 ft 22 kts 181°
2026-05-03 22:49 26.06829 -80.15304 16 ft 13 kts 180°
2026-05-03 22:49 26.06772 -80.15345 16 ft 10 kts 251°
2026-05-03 22:50 26.06719 -80.15389 16 ft 9 kts 201°
2026-05-03 22:50 26.06713 -80.15394 16 ft 1 kts 214°
2026-05-03 22:50 26.06710 -80.15398 16 ft 1 kts 227°
2026-05-03 22:50 26.06705 -80.15406 16 ft 2 kts 236°
2026-05-03 22:51 26.06701 -80.15419 16 ft 2 kts 255°
2026-05-03 22:51 26.06698 -80.15438 16 ft 3 kts 260°
2026-05-03 22:51 26.06697 -80.15462 16 ft 0 kts 268°
2026-05-03 22:51 26.06697 -80.15469 16 ft 2 kts 269°
2026-05-03 22:52 26.06697 -80.15470 16 ft 0 kts 269°
2026-05-03 22:52 26.06697 -80.15481 16 ft 3 kts 270°
2026-05-03 22:52 26.06697 -80.15510 16 ft 0 kts 270°
2026-05-03 22:52 26.06697 -80.15511 16 ft 0 kts 270°
2026-05-03 22:53 26.06697 -80.15513 16 ft 1 kts 270°
2026-05-03 22:53 26.06697 -80.15519 16 ft 0 kts 270°
2026-05-03 22:54 26.06697 -80.15536 16 ft 0 kts 270°
2026-05-03 22:55 26.06697 -80.15538 16 ft 1 kts 270°
2026-05-03 22:55 26.06697 -80.15549 16 ft 2 kts 270°
2026-05-03 22:55 26.06697 -80.15569 16 ft 0 kts 270°
2026-05-03 22:55 26.06697 -80.15573 16 ft 1 kts 271°
2026-05-03 22:56 26.06697 -80.15574 16 ft 0 kts 271°
2026-05-03 22:56 26.06697 -80.15576 16 ft 1 kts 271°
2026-05-03 22:56 26.06697 -80.15586 16 ft 2 kts 271°
2026-05-03 22:57 26.06698 -80.15605 16 ft 3 kts 271°
2026-05-03 22:57 26.06698 -80.15615 16 ft 0 kts 271°
2026-05-03 22:58 26.06698 -80.15623 16 ft 2 kts 271°
2026-05-03 22:58 26.06698 -80.15652 16 ft 5 kts 270°
2026-05-03 22:59 26.06698 -80.15691 16 ft 5 kts 270°
2026-05-03 22:59 26.06699 -80.15708 16 ft 0 kts 270°
2026-05-03 23:01 26.06699 -80.15713 25 ft 1 kts 270°
2026-05-03 23:01 26.06699 -80.15728 19 ft 3 kts 270°
2026-05-03 23:01 26.06699 -80.15748 16 ft 3 kts 270°
2026-05-03 23:02 26.06699 -80.15752 16 ft 0 kts 270°
2026-05-03 23:03 26.06699 -80.15768 16 ft 4 kts 270°
2026-05-03 23:03 26.06685 -80.15807 17 ft 6 kts 229°
2026-05-03 23:03 26.06677 -80.15814 17 ft 0 kts 215°
2026-05-03 23:06 26.06654 -80.15821 16 ft 9 kts 193°
2026-05-03 23:06 26.06602 -80.15800 18 ft 7 kts 131°
2026-05-03 23:06 26.06590 -80.15764 19 ft 0 kts 95°
2026-05-03 23:06 26.06588 -80.15682 22 ft 39 kts 90°
2026-05-03 23:07 26.06590 -80.15116 20 ft 107 kts 90°
2026-05-03 23:07 26.06586 -80.14083 72 ft 156 kts 88°
2026-05-03 23:07 26.06584 -80.12824 517 ft 164 kts 86°
2026-05-03 23:07 26.06647 -80.11555 1108 ft 165 kts 82°
2026-05-03 23:08 26.07023 -80.10326 1523 ft 177 kts 56°
2026-05-03 23:08 26.07745 -80.09119 1746 ft 198 kts 55°
2026-05-03 23:08 26.08570 -80.07779 1911 ft 223 kts 46°
2026-05-03 23:08 26.09892 -80.06775 2165 ft 243 kts 20°
2026-05-03 23:09 26.11538 -80.06106 2631 ft 257 kts 17°
2026-05-03 23:09 26.13245 -80.05427 3303 ft 261 kts 18°
2026-05-03 23:09 26.14905 -80.04872 3826 ft 236 kts
2026-05-03 23:09 26.16488 -80.04982 3978 ft 226 kts 340°
2026-05-03 23:10 26.17963 -80.05547 4011 ft 224 kts 338°
2026-05-03 23:10 26.19432 -80.06124 4016 ft 224 kts 338°
2026-05-03 23:10 26.20878 -80.06840 4023 ft 229 kts 325°
2026-05-03 23:10 26.22125 -80.07957 4222 ft 239 kts 310°
2026-05-03 23:11 26.23143 -80.09518 4565 ft 257 kts 296°
2026-05-03 23:11 26.23837 -80.11376 5223 ft 262 kts 290°
2026-05-03 23:11 26.24508 -80.13271 5935 ft 265 kts 290°
2026-05-03 23:11 26.25191 -80.15181 6670 ft 266 kts 290°
2026-05-03 23:12 26.26072 -80.17001 7368 ft 269 kts 300°
2026-05-03 23:12 26.27084 -80.18766 8033 ft 272 kts 300°
2026-05-03 23:12 26.28089 -80.20525 8723 ft 273 kts 299°
2026-05-03 23:12 26.29110 -80.22316 9419 ft 275 kts 299°
2026-05-03 23:13 26.30137 -80.24121 10103 ft 277 kts 299°
2026-05-03 23:13 26.31170 -80.25940 10728 ft 279 kts 299°
2026-05-03 23:13 26.32211 -80.27774 11343 ft 282 kts 298°
2026-05-03 23:13 26.33293 -80.29686 11556 ft 302 kts 299°
2026-05-03 23:14 26.34449 -80.31738 11685 ft 322 kts 299°
2026-05-03 23:14 26.35672 -80.33898 12025 ft 334 kts 299°
2026-05-03 23:14 26.36923 -80.36097 12590 ft 338 kts 299°
2026-05-03 23:14 26.38188 -80.38321 12936 ft 341 kts 299°
2026-05-03 23:15 26.39457 -80.40553 13012 ft 340 kts 299°
2026-05-03 23:15 26.40721 -80.42783 13023 ft 340 kts 299°
2026-05-03 23:15 26.41992 -80.45038 13473 ft 344 kts 299°
2026-05-03 23:15 26.43269 -80.47304 14108 ft 346 kts 298°
2026-05-03 23:16 26.44553 -80.49575 14653 ft 348 kts 298°
2026-05-03 23:16 26.45849 -80.51866 15201 ft 350 kts 298°
2026-05-03 23:16 26.47289 -80.54085 15735 ft 357 kts 307°
2026-05-03 23:16 26.49127 -80.55928 16297 ft 366 kts 319°
2026-05-03 23:17 26.51379 -80.57334 16814 ft 377 kts 332°
2026-05-03 23:17 26.53913 -80.58228 17311 ft 385 kts 338°
2026-05-03 23:17 26.56504 -80.59038 17838 ft 388 kts 338°
2026-05-03 23:17 26.59121 -80.59857 18330 ft 391 kts 337°
2026-05-03 23:18 26.61753 -80.60686 18751 ft 395 kts 337°
2026-05-03 23:18 26.64400 -80.61524 19167 ft 397 kts 337°
2026-05-03 23:18 26.66166 -80.62086 19457 ft 399 kts 337°
2026-05-03 23:18 26.68847 -80.62940 19885 ft 402 kts 336°
2026-05-03 23:19 26.71543 -80.63804 20319 ft 404 kts 336°
2026-05-03 23:19 26.74254 -80.64673 20752 ft 407 kts 336°
2026-05-03 23:19 26.76990 -80.65546 21181 ft 410 kts 336°
2026-05-03 23:19 26.79748 -80.66424 21586 ft 413 kts 336°
2026-05-03 23:20 26.82521 -80.67307 22036 ft 416 kts 336°
2026-05-03 23:20 26.85310 -80.68197 22445 ft 419 kts 336°
2026-05-03 23:20 26.88125 -80.69096 22861 ft 422 kts 335°
2026-05-03 23:20 26.90955 -80.69999 23246 ft 424 kts 335°
2026-05-03 23:21 26.93781 -80.70956 23625 ft 425 kts 334°
2026-05-03 23:21 26.96590 -80.71989 23948 ft 426 kts 332°
2026-05-03 23:21 26.99400 -80.73075 24277 ft 427 kts 332°
2026-05-03 23:21 27.02207 -80.74179 24608 ft 429 kts 332°
2026-05-03 23:22 27.07872 -80.76386 25285 ft 433 kts 332°
2026-05-03 23:22 27.10724 -80.77479 25618 ft 435 kts 332°
2026-05-03 23:22 27.13600 -80.78570 25950 ft 437 kts 332°
2026-05-03 23:23 27.16487 -80.79659 26278 ft 439 kts 333°
2026-05-03 23:23 27.19387 -80.80751 26604 ft 441 kts 333°
2026-05-03 23:23 27.22301 -80.81849 26909 ft 443 kts 333°
2026-05-03 23:23 27.25235 -80.82957 27215 ft 445 kts 333°
2026-05-03 23:24 27.28181 -80.84059 27525 ft 447 kts 333°
2026-05-03 23:24 27.31094 -80.85168 27828 ft 449 kts 332°
2026-05-03 23:24 27.34044 -80.86328 28127 ft 450 kts 331°
2026-05-03 23:24 27.36990 -80.87521 28420 ft 451 kts 331°
2026-05-03 23:25 27.39939 -80.88743 28710 ft 453 kts 330°
2026-05-03 23:25 27.42896 -80.89981 29008 ft 454 kts 330°
2026-05-03 23:25 27.45866 -80.91226 29296 ft 456 kts 330°
2026-05-03 23:25 27.48846 -80.92465 29616 ft 457 kts 331°
2026-05-03 23:26 27.51841 -80.93701 29913 ft 459 kts 331°
2026-05-03 23:26 27.54843 -80.94936 30200 ft 461 kts 331°
2026-05-03 23:26 27.57860 -80.96179 30434 ft 463 kts 330°
2026-05-03 23:26 27.60887 -80.97427 30729 ft 462 kts 330°
2026-05-03 23:27 27.63904 -80.98669 31039 ft 462 kts 330°
2026-05-03 23:27 27.66925 -80.99916 31341 ft 462 kts 330°
2026-05-03 23:27 27.69941 -81.01161 31629 ft 462 kts 329°
2026-05-03 23:27 27.72960 -81.02407 31933 ft 462 kts 329°
2026-05-03 23:28 27.75981 -81.03653 32224 ft 462 kts 329°
2026-05-03 23:28 27.78999 -81.04900 32540 ft 463 kts 328°
2026-05-03 23:28 27.82027 -81.06155 32786 ft 463 kts 328°
2026-05-03 23:28 27.85053 -81.07412 33064 ft 463 kts 328°
2026-05-03 23:29 27.88076 -81.08669 33352 ft 463 kts 328°
2026-05-03 23:29 27.91101 -81.09927 33658 ft 463 kts 327°
2026-05-03 23:29 27.94142 -81.11189 33963 ft 463 kts 327°
2026-05-03 23:29 27.97143 -81.12433 34222 ft 462 kts 327°
2026-05-03 23:30 28.00164 -81.13685 34480 ft 461 kts 327°
2026-05-03 23:30 28.03172 -81.14934 34751 ft 460 kts 327°
2026-05-03 23:30 28.06135 -81.16166 35012 ft 459 kts 327°
2026-05-03 23:30 28.09128 -81.17409 35334 ft 458 kts 327°
2026-05-03 23:31 28.12130 -81.18629 35589 ft 458 kts 327°
2026-05-03 23:31 28.15133 -81.19835 35850 ft 457 kts 327°
2026-05-03 23:31 28.18133 -81.21035 36045 ft 457 kts 327°
2026-05-03 23:31 28.21130 -81.22230 36097 ft 457 kts 327°
2026-05-03 23:32 28.27121 -81.24614 36093 ft 456 kts 327°
2026-05-03 23:32 28.33111 -81.26995 36092 ft 456 kts 327°
2026-05-03 23:33 28.39103 -81.29377 36138 ft 456 kts 327°
2026-05-03 23:33 28.45108 -81.31725 36092 ft 457 kts 327°
2026-05-03 23:34 28.51126 -81.34072 36111 ft 458 kts 327°
2026-05-03 23:34 28.57160 -81.36427 36116 ft 458 kts 327°
2026-05-03 23:35 28.63184 -81.38778 36119 ft 458 kts 327°
2026-05-03 23:35 28.69218 -81.41134 36188 ft 459 kts 327°
2026-05-03 23:36 28.75202 -81.43429 36086 ft 455 kts 327°
2026-05-03 23:36 28.81210 -81.45724 36087 ft 456 kts 327°
2026-05-03 23:37 28.87228 -81.48029 36104 ft 457 kts 327°
2026-05-03 23:37 28.93264 -81.50344 36113 ft 458 kts 327°
2026-05-03 23:38 28.99303 -81.52661 36169 ft 458 kts 327°
2026-05-03 23:38 29.05331 -81.54979 36110 ft 456 kts 327°
2026-05-03 23:39 29.11350 -81.57293 36110 ft 457 kts 327°
2026-05-03 23:39 29.17383 -81.59617 36116 ft 458 kts 327°
2026-05-03 23:40 29.23425 -81.61944 36128 ft 458 kts 327°
2026-05-03 23:40 29.29465 -81.64273 36150 ft 458 kts 327°
2026-05-03 23:41 29.35472 -81.66618 36113 ft 454 kts 327°
2026-05-03 23:41 29.41433 -81.69025 36123 ft 455 kts 327°
2026-05-03 23:42 29.47408 -81.71441 36141 ft 456 kts 327°
2026-05-03 23:42 29.53389 -81.73859 36142 ft 456 kts 327°
2026-05-03 23:43 29.59422 -81.76186 36138 ft 466 kts 336°
2026-05-03 23:43 29.62714 -81.76533 36117 ft 481 kts 347°
2026-05-03 23:43 29.66062 -81.76558 36107 ft 481 kts 347°